TimeCST,TemperatureF,Dew PointF,Humidity,Sea Level PressureIn,VisibilityMPH,Wind Direction,Wind SpeedMPH,Gust SpeedMPH,PrecipitationIn,Events,Conditions,WindDirDegrees,DateUTC
12:53 AM,63.0,48.0,58,29.96,10.0,South,10.4,19.6,N/A,,Mostly Cloudy,180,2012-11-09 06:53:00
1:53 AM,62.1,48.9,62,29.96,10.0,South,9.2,-,N/A,,Partly Cloudy,180,2012-11-09 07:53:00
2:53 AM,62.1,51.1,67,29.96,10.0,South,15.0,24.2,N/A,,Clear,180,2012-11-09 08:53:00
3:53 AM,61.0,52.0,72,29.97,9.0,South,13.8,24.2,N/A,,Clear,180,2012-11-09 09:53:00
4:53 AM,60.1,53.1,78,29.97,9.0,South,10.4,21.9,N/A,,Clear,180,2012-11-09 10:53:00
5:51 AM,60.8,53.6,77,29.99,9.0,South,13.8,19.6,N/A,,Mostly Cloudy,180,2012-11-09 11:51:00
5:53 AM,61.0,54.0,78,29.98,9.0,South,11.5,20.7,N/A,,Mostly Cloudy,180,2012-11-09 11:53:00
6:51 AM,62.6,55.4,77,30.00,8.0,South,11.5,18.4,N/A,,Scattered Clouds,180,2012-11-09 12:51:00
6:53 AM,62.1,55.0,78,29.99,8.0,South,12.7,20.7,N/A,,Partly Cloudy,180,2012-11-09 12:53:00
7:30 AM,62.6,55.4,77,30.01,6.0,South,13.8,21.9,N/A,,Haze,190,2012-11-09 13:30:00
7:53 AM,63.0,55.9,78,30.00,6.0,South,10.4,17.3,N/A,,Haze,190,2012-11-09 13:53:00
8:53 AM,64.9,57.0,75,30.01,6.0,South,13.8,23.0,N/A,,Haze,180,2012-11-09 14:53:00
9:53 AM,66.9,57.9,73,30.00,6.0,South,13.8,26.5,N/A,,Haze,180,2012-11-09 15:53:00
10:53 AM,68.0,57.9,70,30.00,10.0,South,15.0,25.3,N/A,,Overcast,190,2012-11-09 16:53:00
11:53 AM,70.0,59.0,68,29.97,10.0,South,12.7,25.3,N/A,,Overcast,180,2012-11-09 17:53:00
12:53 PM,75.9,59.0,56,29.92,10.0,South,16.1,26.5,N/A,,Mostly Cloudy,180,2012-11-09 18:53:00
1:53 PM,80.1,57.9,47,29.88,10.0,South,15.0,26.5,N/A,,Partly Cloudy,180,2012-11-09 19:53:00
2:53 PM,79.0,57.9,48,29.87,10.0,South,16.1,31.1,N/A,,Partly Cloudy,180,2012-11-09 20:53:00
3:53 PM,79.0,55.0,44,29.87,10.0,South,15.0,24.2,N/A,,Clear,190,2012-11-09 21:53:00
4:53 PM,75.9,57.0,52,29.87,10.0,South,11.5,26.5,N/A,,Partly Cloudy,170,2012-11-09 22:53:00
5:53 PM,73.9,57.0,55,29.88,10.0,South,11.5,21.9,N/A,,Clear,170,2012-11-09 23:53:00
6:53 PM,73.9,55.9,53,29.90,10.0,South,8.1,24.2,N/A,,Partly Cloudy,170,2012-11-10 00:53:00
7:53 PM,73.0,55.9,55,29.91,10.0,SSE,11.5,25.3,N/A,,Clear,160,2012-11-10 01:53:00
8:53 PM,72.0,55.9,57,29.91,10.0,South,13.8,27.6,N/A,,Scattered Clouds,170,2012-11-10 02:53:00
9:53 PM,72.0,55.0,55,29.92,10.0,South,13.8,26.5,N/A,,Partly Cloudy,170,2012-11-10 03:53:00
10:53 PM,69.8,55.4,60,29.94,10.0,South,12.7,27.6,N/A,,Clear,170,2012-11-10 04:53:00
11:53 PM,69.1,54.0,58,29.93,10.0,South,15.0,25.3,N/A,,Scattered Clouds,180,2012-11-10 05:53:00